Location: Newark
(45.2862°N, 9.8850°E)
Time: 22:45:26
(UTC+00:00)

N. Korean satellite - Pass Details

Date: 15 December 2019
Orbit: 454 x 507 km, 97.2° (Epoch: 21 January)

Event Time Altitude Azimuth Distance (km) Brightness Sun altitude
Rises 16:36:36 0° 178° (S) 2,595 10.6 -9.9°
Reaches altitude 10° 16:38:43 10° 183° (S) 1,712 9.7 -10.2°
Maximum altitude 16:42:19 51° 260° (W) 635 7.6 -10.8°
Drops below altitude 10° 16:45:55 10° 338° (NNW) 1,706 9.3 -11.4°
Sets 16:48:02 0° 343° (NNW) 2,586 10.2 -11.7°
